QPF
0.00 0.00 0.02 0.06 0.13 0.12 0.08 0.06 0.04 0.03 0.02 0.01 0.00 0.01 0.03 0.03 0.06 0.08 0.09 0.08 0.07 0.07 0.06 0.03 0.02 0.02 0.04 0.07 0.10 0.09 0.08 0.08 0.05 0.07 0.06 0.05 0.06 0.06 0.06 0.08 0.06 0.05 0.08 0.08 0.08 0.08 0.08 0.08 0.06
0.00 0.01 0.02 0.06 0.11 0.09 0.07 0.05 0.03 0.02 0.01 0.00 0.00 0.01 0.02 0.02 0.03 0.05 0.08 0.07 0.04 0.04 0.02 0.02 0.02 0.03 0.07 0.14 0.12 0.09 0.06 0.06 0.05 0.04 0.04 0.03 0.04 0.05 0.04 0.05 0.06 0.07 0.09 0.07 0.05 0.05 0.06 0.05 0.05
0.00 0.00 0.03 0.07 0.08 0.08 0.07 0.05 0.03 0.01 0.00 0.00 0.01 0.01 0.02 0.03 0.05 0.05 0.06 0.04 0.02 0.03 0.03 0.03 0.03 0.05 0.12 0.16 0.11 0.05 0.04 0.04 0.05 0.05 0.03 0.03 0.04 0.04 0.05 0.06 0.06 0.07 0.10 0.09 0.05 0.03 0.04 0.05 0.05
0.00 0.01 0.03 0.06 0.06 0.04 0.05 0.02 0.01 0.01 0.00 0.00 0.01 0.01 0.02 0.03 0.05 0.04 0.03 0.02 0.01 0.02 0.04 0.03 0.03 0.04 0.05 0.07 0.07 0.05 0.03 0.04 0.04 0.04 0.04 0.04 0.05 0.06 0.07 0.07 0.07 0.07 0.08 0.11 0.09 0.05 0.08 0.06 0.05
0.01 0.02 0.05 0.06 0.04 0.02 0.02 0.02 0.01 0.01 0.01 0.00 0.01 0.01 0.03 0.03 0.02 0.01 0.01 0.01 0.01 0.01 0.01 0.01 0.01 0.01 0.02 0.02 0.03 0.03 0.03 0.03 0.04 0.03 0.04 0.04 0.04 0.06 0.07 0.07 0.08 0.06 0.08 0.10 0.11 0.10 0.10 0.08 0.06
0.01 0.01 0.04 0.06 0.04 0.01 0.02 0.01 0.00 0.03 0.02 0.01 0.01 0.01 0.02 0.03 0.02 0.01 0.01 0.01 0.01 0.01 0.00 0.00 0.01 0.01 0.02 0.02 0.02 0.03 0.04 0.04 0.04 0.05 0.05 0.04 0.04 0.05 0.06 0.07 0.05 0.03 0.07 0.11 0.12 0.11 0.10 0.07 0.06
0.02 0.02 0.03 0.04 0.04 0.03 0.01 0.00 0.00 0.01 0.02 0.02 0.01 0.01 0.01 0.02 0.01 0.01 0.01 0.01 0.01 0.01 0.01 0.01 0.01 0.00 0.01 0.02 0.02 0.03 0.04 0.05 0.04 0.04 0.06 0.06 0.06 0.05 0.06 0.06 0.04 0.03 0.04 0.05 0.05 0.05 0.06 0.06 0.06
0.00 0.01 0.02 0.03 0.04 0.04 0.02 0.00 0.00 0.01 0.01 0.01 0.01 0.03 0.02 0.01 0.00 0.00 0.01 0.01 0.01 0.01 0.01 0.01 0.01 0.01 0.01 0.01 0.01 0.01 0.03 0.04 0.04 0.03 0.04 0.06 0.07 0.06 0.06 0.06 0.05 0.05 0.05 0.05 0.04 0.04 0.05 0.05 0.06
0.00 0.02 0.03 0.04 0.04 0.03 0.02 0.01 0.01 0.00 0.00 0.00 0.00 0.01 0.01 0.00 0.00 0.00 0.01 0.03 0.02 0.01 0.01 0.01 0.01 0.02 0.03 0.01 0.01 0.01 0.02 0.03 0.04 0.04 0.04 0.09 0.11 0.09 0.07 0.06 0.07 0.07 0.08 0.08 0.07 0.06 0.05 0.05 0.06
0.00 0.03 0.04 0.02 0.03 0.02 0.01 0.01 0.01 0.02 0.01 0.01 0.00 0.00 0.00 0.00 0.00 0.00 0.01 0.02 0.01 0.00 0.01 0.01 0.01 0.01 0.03 0.02 0.01 0.02 0.02 0.03 0.04 0.04 0.06 0.09 0.09 0.08 0.05 0.06 0.07 0.09 0.10 0.09 0.08 0.07 0.07 0.06 0.06
0.00 0.02 0.01 0.02 0.02 0.01 0.01 0.01 0.01 0.03 0.03 0.01 0.01 0.00 0.00 0.00 0.01 0.01 0.00 0.01 0.01 0.01 0.01 0.01 0.01 0.00 0.01 0.02 0.02 0.02 0.02 0.03 0.03 0.04 0.04 0.06 0.05 0.06 0.06 0.07 0.07 0.08 0.08 0.06 0.05 0.06 0.08 0.06 0.05
0.01 0.01 0.01 0.01 0.00 0.00 0.01 0.01 0.01 0.02 0.02 0.01 0.01 0.00 0.00 0.01 0.01 0.00 0.00 0.01 0.00 0.00 0.01 0.01 0.00 0.00 0.00 0.01 0.00 0.01 0.01 0.02 0.03 0.03 0.02 0.03 0.06 0.07 0.07 0.06 0.06 0.06 0.05 0.04 0.03 0.04 0.08 0.04 0.03
0.01 0.01 0.01 0.00 0.00 0.00 0.00 0.01 0.01 0.01 0.00 0.00 0.00 0.01 0.01 0.00 0.01 0.01 0.02 0.01 0.00 0.00 0.00 0.00 0.00 0.01 0.00 0.01 0.01 0.01 0.01 0.02 0.01 0.01 0.01 0.02 0.04 0.04 0.05 0.05 0.05 0.05 0.05 0.04 0.03 0.04 0.05 0.06 0.05
0.01 0.01 0.01 0.00 0.00 0.01 0.01 0.01 0.01 0.01 0.00 0.00 0.01 0.02 0.01 0.00 0.01 0.01 0.01 0.01 0.01 0.00 0.00 0.01 0.01 0.01 0.01 0.01 0.01 0.01 0.01 0.01 0.00 0.00 0.01 0.01 0.02 0.02 0.04 0.04 0.03 0.03 0.03 0.02 0.02 0.03 0.04 0.05 0.04
0.00 0.01 0.02 0.02 0.01 0.01 0.01 0.02 0.01 0.01 0.00 0.01 0.01 0.03 0.01 0.01 0.01 0.01 0.01 0.02 0.01 0.00 0.00 0.01 0.01 0.01 0.01 0.01 0.00 0.01 0.01 0.00 0.00 0.00 0.00 0.01 0.01 0.02 0.03 0.02 0.01 0.02 0.01 0.02 0.02 0.01 0.02 0.03 0.03
0.01 0.02 0.04 0.03 0.02 0.01 0.02 0.03 0.01 0.01 0.01 0.02 0.02 0.02 0.01 0.01 0.01 0.01 0.01 0.01 0.01 0.01 0.00 0.01 0.01 0.01 0.01 0.01 0.00 0.01 0.00 0.00 0.00 0.01 0.00 0.00 0.00 0.01 0.01 0.01 0.01 0.01 0.01 0.02 0.02 0.02 0.03 0.04 0.03
0.03 0.03 0.04 0.03 0.02 0.01 0.01 0.02 0.01 0.01 0.02 0.03 0.03 0.02 0.01 0.01 0.01 0.01 0.01 0.01 0.01 0.02 0.01 0.00 0.00 0.00 0.00 0.01 0.01 0.01 0.01 0.01 0.01 0.01 0.00 0.00 0.00 0.01 0.01 0.01 0.01 0.00 0.01 0.02 0.03 0.03 0.03 0.04 0.03
0.02 0.03 0.03 0.02 0.01 0.01 0.01 0.01 0.00 0.00 0.01 0.02 0.02 0.02 0.01 0.01 0.01 0.01 0.02 0.02 0.01 0.02 0.01 0.01 0.00 0.00 0.00 0.01 0.01 0.01 0.01 0.01 0.01 0.00 0.00 0.00 0.01 0.01 0.01 0.01 0.01 0.00 0.01 0.02 0.02 0.02 0.03 0.03 0.03
0.01 0.01 0.02 0.02 0.01 0.00 0.00 0.00 0.00 0.00 0.00 0.00 0.01 0.01 0.01 0.01 0.01 0.00 0.01 0.02 0.02 0.02 0.02 0.02 0.01 0.01 0.01 0.01 0.01 0.01 0.01 0.01 0.01 0.01 0.01 0.01 0.00 0.00 0.00 0.01 0.01 0.01 0.02 0.02 0.01 0.02 0.03 0.02 0.02
0.01 0.02 0.02 0.01 0.01 0.00 0.01 0.01 0.00 0.00 0.00 0.00 0.01 0.01 0.01 0.01 0.01 0.00 0.01 0.01 0.01 0.01 0.01 0.01 0.01 0.01 0.01 0.01 0.01 0.01 0.01 0.01 0.00 0.01 0.01 0.01 0.00 0.00 0.00 0.01 0.02 0.02 0.03 0.02 0.01 0.02 0.03 0.02 0.02
0.02 0.02 0.02 0.01 0.01 0.01 0.01 0.02 0.01 0.00 0.00 0.00 0.00 0.01 0.01 0.00 0.00 0.00 0.00 0.01 0.01 0.01 0.01 0.01 0.01 0.01 0.01 0.01 0.01 0.01 0.01 0.01 0.01 0.01 0.01 0.01 0.00 0.01 0.01 0.01 0.02 0.01 0.02 0.02 0.01 0.02 0.04 0.03 0.02
0.01 0.02 0.01 0.01 0.01 0.02 0.01 0.02 0.01 0.00 0.00 0.00 0.00 0.01 0.01 0.00 0.00 0.00 0.00 0.00 0.00 0.01 0.01 0.01 0.02 0.01 0.01 0.01 0.01 0.01 0.01 0.02 0.02 0.01 0.01 0.01 0.00 0.01 0.01 0.02 0.02 0.01 0.01 0.01 0.01 0.01 0.02 0.04 0.03
0.01 0.01 0.01 0.01 0.01 0.02 0.01 0.01 0.01 0.00 0.01 0.00 0.00 0.00 0.00 0.00 0.00 0.00 0.01 0.01 0.01 0.01 0.01 0.02 0.02 0.01 0.01 0.01 0.01 0.01 0.01 0.01 0.01 0.00 0.01 0.01 0.00 0.01 0.00 0.01 0.01 0.01 0.01 0.01 0.01 0.01 0.01 0.03 0.03
0.00 0.00 0.01 0.02 0.02 0.02 0.01 0.02 0.02 0.01 0.01 0.00 0.00 0.00 0.00 0.00 0.00 0.00 0.00 0.01 0.03 0.02 0.01 0.02 0.02 0.02 0.01 0.01 0.00 0.01 0.01 0.01 0.01 0.01 0.01 0.01 0.01 0.01 0.00 0.00 0.01 0.01 0.00 0.01 0.02 0.01 0.01 0.01 0.02
0.01 0.02 0.04 0.05 0.05 0.03 0.01 0.02 0.02 0.01 0.00 0.00 0.00 0.00 0.00 0.00 0.01 0.00 0.00 0.00 0.01 0.02 0.02 0.02 0.02 0.01 0.01 0.01 0.00 0.00 0.00 0.00 0.01 0.01 0.01 0.01 0.01 0.02 0.01 0.01 0.01 0.01 0.01 0.01 0.01 0.01 0.01 0.00 0.01
0.01 0.02 0.05 0.05 0.04 0.02 0.01 0.03 0.02 0.01 0.00 0.00 0.00 0.00 0.00 0.00 0.01 0.00 0.00 0.00 0.00 0.01 0.01 0.01 0.02 0.02 0.01 0.01 0.01 0.01 0.00 0.00 0.00 0.00 0.01 0.01 0.01 0.01 0.01 0.00 0.00 0.00 0.01 0.01 0.01 0.01 0.01 0.00 0.01
0.02 0.02 0.02 0.02 0.02 0.03 0.03 0.02 0.01 0.01 0.00 0.00 0.00 0.00 0.00 0.00 0.00 0.00 0.00 0.00 0.00 0.00 0.00 0.00 0.00 0.01 0.01 0.00 0.01 0.01 0.01 0.00 0.00 0.00 0.00 0.00 0.00 0.00 0.00 0.00 0.00 0.00 0.00 0.00 0.01 0.01 0.01 0.00 0.01
0.01 0.01 0.02 0.02 0.03 0.05 0.04 0.02 0.01 0.01 0.00 0.00 0.00 0.01 0.01 0.00 0.00 0.00 0.00 0.00 0.00 0.00 0.00 0.00 0.00 0.01 0.01 0.00 0.00 0.01 0.01 0.00 0.00 0.00 0.00 0.00 0.00 0.00 0.00 0.00 0.00 0.00 0.00 0.00 0.00 0.01 0.01 0.00 0.01
0.02 0.01 0.01 0.01 0.01 0.03 0.04 0.03 0.01 0.00 0.00 0.00 0.00 0.00 0.01 0.00 0.01 0.01 0.00 0.00 0.00 0.00 0.00 0.01 0.01 0.01 0.01 0.00 0.01 0.01 0.01 0.01 0.00 0.00 0.00 0.01 0.01 0.00 0.00 0.00 0.01 0.01 0.01 0.01 0.00 0.01 0.01 0.01 0.01
0.02 0.01 0.01 0.02 0.02 0.01 0.03 0.02 0.00 0.00 0.00 0.00 0.00 0.00 0.00 0.00 0.00 0.00 0.00 0.00 0.00 0.00 0.00 0.00 0.00 0.01 0.01 0.01 0.01 0.01 0.01 0.01 0.00 0.00 0.00 0.01 0.01 0.00 0.00 0.00 0.01 0.00 0.00 0.01 0.01 0.01 0.01 0.01 0.01
MSLP
1006.62 1007.38 1008.47 1009.77 1011.12 1012.37 1013.39 1014.09 1014.47 1014.59 1014.56 1014.49 1014.49 1014.61 1014.85 1015.16 1015.45 1015.63 1015.64 1015.46 1015.13 1014.70 1014.26 1013.90 1013.67 1013.59 1013.61 1013.68 1013.75 1013.75 1013.68 1013.53 1013.36 1013.21 1013.14 1013.18 1013.33 1013.57 1013.85 1014.13 1014.37 1014.53 1014.62 1014.64 1014.63 1014.61 1014.59 1014.58 1014.58
1007.09 1008.08 1009.34 1010.73 1012.09 1013.25 1014.11 1014.62 1014.81 1014.77 1014.62 1014.49 1014.48 1014.61 1014.88 1015.20 1015.48 1015.63 1015.60 1015.39 1015.02 1014.59 1014.19 1013.89 1013.75 1013.75 1013.85 1013.98 1014.09 1014.11 1014.03 1013.86 1013.67 1013.50 1013.41 1013.43 1013.56 1013.77 1014.03 1014.29 1014.51 1014.66 1014.75 1014.79 1014.80 1014.81 1014.81 1014.83 1014.84
1007.77 1008.96 1010.35 1011.78 1013.07 1014.09 1014.77 1015.07 1015.06 1014.87 1014.62 1014.45 1014.44 1014.60 1014.88 1015.21 1015.47 1015.58 1015.50 1015.23 1014.84 1014.41 1014.04 1013.80 1013.74 1013.83 1014.01 1014.22 1014.38 1014.44 1014.38 1014.24 1014.05 1013.89 1013.80 1013.80 1013.91 1014.09 1014.32 1014.53 1014.71 1014.83 1014.91 1014.96 1015.00 1015.03 1015.07 1015.11 1015.15
1008.60 1009.94 1011.40 1012.81 1014.00 1014.86 1015.33 1015.43 1015.26 1014.95 1014.64 1014.45 1014.45 1014.63 1014.93 1015.24 1015.47 1015.53 1015.38 1015.06 1014.63 1014.20 1013.86 1013.68 1013.69 1013.86 1014.12 1014.40 1014.61 1014.73 1014.72 1014.61 1014.47 1014.33 1014.27 1014.28 1014.38 1014.54 1014.72 1014.89 1015.02 1015.11 1015.17 1015.21 1015.26 1015.33 1015.41 1015.48 1015.54
1009.48 1010.91 1012.38 1013.72 1014.78 1015.47 1015.77 1015.71 1015.42 1015.04 1014.72 1014.54 1014.57 1014.77 1015.07 1015.36 1015.53 1015.51 1015.30 1014.92 1014.47 1014.04 1013.73 1013.60 1013.68 1013.91 1014.23 1014.55 1014.81 1014.96 1014.99 1014.94 1014.85 1014.78 1014.76 1014.82 1014.93 1015.09 1015.24 1015.37 1015.45 1015.50 1015.54 1015.57 1015.64 1015.72 1015.83 1015.93 1016.03
1010.32 1011.77 1013.20 1014.44 1015.36 1015.90 1016.05 1015.90 1015.56 1015.17 1014.88 1014.76 1014.83 1015.05 1015.34 1015.59 1015.69 1015.60 1015.32 1014.89 1014.42 1014.00 1013.73 1013.65 1013.76 1014.03 1014.37 1014.71 1014.97 1015.14 1015.20 1015.19 1015.17 1015.17 1015.22 1015.34 1015.50 1015.68 1015.83 1015.93 1015.99 1016.01 1016.01 1016.03 1016.09 1016.19 1016.31 1016.45 1016.57
1011.04 1012.45 1013.78 1014.89 1015.68 1016.10 1016.18 1015.99 1015.67 1015.35 1015.14 1015.09 1015.23 1015.47 1015.75 1015.94 1015.97 1015.81 1015.46 1015.01 1014.53 1014.14 1013.90 1013.86 1014.00 1014.27 1014.60 1014.90 1015.14 1015.28 1015.34 1015.36 1015.38 1015.46 1015.60 1015.80 1016.02 1016.24 1016.42 1016.52 1016.56 1016.55 1016.53 1016.54 1016.59 1016.69 1016.82 1016.98 1017.12
1011.61 1012.93 1014.13 1015.11 1015.77 1016.11 1016.16 1016.00 1015.76 1015.55 1015.46 1015.53 1015.73 1016.00 1016.25 1016.39 1016.35 1016.12 1015.73 1015.26 1014.80 1014.44 1014.25 1014.24 1014.39 1014.64 1014.92 1015.17 1015.33 1015.42 1015.45 1015.46 1015.52 1015.65 1015.87 1016.15 1016.45 1016.73 1016.95 1017.07 1017.11 1017.09 1017.05 1017.03 1017.07 1017.16 1017.31 1017.47 1017.64
1012.05 1013.25 1014.31 1015.15 1015.71 1015.99 1016.05 1015.96 1015.84 1015.77 1015.83 1016.00 1016.28 1016.57 1016.80 1016.89 1016.79 1016.50 1016.09 1015.62 1015.19 1014.87 1014.72 1014.74 1014.90 1015.12 1015.34 1015.50 1015.58 1015.59 1015.56 1015.55 1015.61 1015.78 1016.05 1016.40 1016.77 1017.11 1017.37 1017.53 1017.58 1017.56 1017.51 1017.48 1017.50 1017.59 1017.73 1017.91 1018.10
1012.45 1013.50 1014.41 1015.11 1015.58 1015.83 1015.92 1015.93 1015.94 1016.02 1016.21 1016.49 1016.82 1017.13 1017.33 1017.37 1017.22 1016.90 1016.47 1016.02 1015.63 1015.36 1015.26 1015.31 1015.47 1015.66 1015.82 1015.90 1015.89 1015.81 1015.72 1015.66 1015.71 1015.89 1016.19 1016.58 1017.01 1017.39 1017.70 1017.88 1017.95 1017.94 1017.90 1017.86 1017.87 1017.95 1018.10 1018.30 1018.51
1012.86 1013.78 1014.54 1015.12 1015.50 1015.73 1015.85 1015.95 1016.07 1016.28 1016.58 1016.95 1017.32 1017.63 1017.80 1017.80 1017.61 1017.26 1016.83 1016.41 1016.06 1015.85 1015.80 1015.88 1016.04 1016.21 1016.33 1016.35 1016.27 1016.12 1015.97 1015.87 1015.89 1016.05 1016.35 1016.75 1017.19 1017.61 1017.94 1018.15 1018.25 1018.26 1018.23 1018.20 1018.21 1018.30 1018.45 1018.66 1018.90
1013.36 1014.16 1014.79 1015.25 1015.56 1015.76 1015.91 1016.06 1016.28 1016.57 1016.95 1017.36 1017.75 1018.04 1018.19 1018.15 1017.93 1017.58 1017.16 1016.76 1016.45 1016.28 1016.27 1016.38 1016.55 1016.72 1016.81 1016.81 1016.70 1016.52 1016.32 1016.19 1016.17 1016.29 1016.57 1016.95 1017.37 1017.79 1018.13 1018.37 1018.50 1018.55 1018.54 1018.54 1018.57 1018.66 1018.82 1019.04 1019.29
1013.96 1014.65 1015.17 1015.53 1015.78 1015.95 1016.11 1016.29 1016.55 1016.89 1017.29 1017.71 1018.09 1018.37 1018.48 1018.42 1018.19 1017.84 1017.44 1017.07 1016.79 1016.66 1016.67 1016.79 1016.98 1017.15 1017.26 1017.26 1017.16 1016.98 1016.78 1016.63 1016.58 1016.66 1016.88 1017.21 1017.60 1017.99 1018.33 1018.59 1018.76 1018.85 1018.89 1018.93 1018.99 1019.10 1019.27 1019.49 1019.74
1014.60 1015.21 1015.65 1015.95 1016.14 1016.29 1016.44 1016.62 1016.88 1017.21 1017.60 1018.00 1018.35 1018.60 1018.70 1018.64 1018.42 1018.09 1017.72 1017.37 1017.11 1016.99 1017.00 1017.13 1017.33 1017.52 1017.65 1017.70 1017.64 1017.50 1017.33 1017.18 1017.10 1017.14 1017.29 1017.55 1017.88 1018.23 1018.56 1018.83 1019.04 1019.19 1019.30 1019.40 1019.50 1019.64 1019.81 1020.03 1020.26
1015.20 1015.75 1016.14 1016.40 1016.57 1016.71 1016.84 1017.01 1017.24 1017.54 1017.89 1018.24 1018.55 1018.78 1018.88 1018.84 1018.65 1018.36 1018.03 1017.71 1017.46 1017.33 1017.33 1017.45 1017.63 1017.84 1018.01 1018.11 1018.12 1018.05 1017.92 1017.79 1017.70 1017.69 1017.77 1017.95 1018.21 1018.50 1018.82 1019.11 1019.37 1019.59 1019.77 1019.94 1020.09 1020.26 1020.44 1020.64 1020.85
1015.65 1016.16 1016.53 1016.80 1016.98 1017.13 1017.26 1017.42 1017.61 1017.85 1018.14 1018.43 1018.71 1018.92 1019.04 1019.03 1018.91 1018.69 1018.41 1018.12 1017.89 1017.74 1017.70 1017.78 1017.94 1018.15 1018.35 1018.50 1018.58 1018.59 1018.52 1018.43 1018.33 1018.28 1018.29 1018.39 1018.57 1018.81 1019.10 1019.41 1019.72 1020.01 1020.27 1020.51 1020.73 1020.92 1021.11 1021.28 1021.45
1015.84 1016.35 1016.75 1017.06 1017.31 1017.50 1017.66 1017.81 1017.96 1018.15 1018.36 1018.59 1018.82 1019.03 1019.18 1019.24 1019.20 1019.06 1018.86 1018.62 1018.39 1018.23 1018.15 1018.17 1018.29 1018.47 1018.69 1018.88 1019.03 1019.10 1019.10 1019.04 1018.95 1018.86 1018.81 1018.83 1018.94 1019.13 1019.39 1019.71 1020.06 1020.41 1020.75 1021.06 1021.32 1021.55 1021.73 1021.88 1022.01
1015.75 1016.28 1016.75 1017.16 1017.51 1017.79 1018.01 1018.17 1018.30 1018.42 1018.56 1018.72 1018.91 1019.11 1019.30 1019.43 1019.50 1019.47 1019.35 1019.18 1018.97 1018.79 1018.66 1018.62 1018.68 1018.83 1019.03 1019.25 1019.45 1019.58 1019.63 1019.61 1019.52 1019.41 1019.31 1019.26 1019.30 1019.43 1019.67 1019.98 1020.36 1020.76 1021.15 1021.51 1021.81 1022.06 1022.24 1022.37 1022.46
1015.41 1015.99 1016.57 1017.13 1017.63 1018.03 1018.34 1018.53 1018.65 1018.71 1018.76 1018.84 1018.98 1019.16 1019.38 1019.59 1019.76 1019.84 1019.83 1019.73 1019.57 1019.38 1019.22 1019.12 1019.11 1019.21 1019.38 1019.60 1019.82 1020.00 1020.10 1020.11 1020.03 1019.91 1019.77 1019.67 1019.65 1019.73 1019.93 1020.23 1020.61 1021.03 1021.44 1021.83 1022.15 1022.40 1022.58 1022.69 1022.76
1014.89 1015.57 1016.29 1017.03 1017.71 1018.27 1018.68 1018.92 1019.01 1019.01 1018.98 1018.97 1019.03 1019.17 1019.40 1019.67 1019.93 1020.14 1020.24 1020.23 1020.12 1019.94 1019.76 1019.61 1019.54 1019.58 1019.72 1019.92 1020.15 1020.35 1020.49 1020.53 1020.48 1020.35 1020.20 1020.07 1020.00 1020.03 1020.19 1020.45 1020.80 1021.21 1021.61 1021.99 1022.31 1022.55 1022.72 1022.83 1022.89
1014.33 1015.12 1016.02 1016.95 1017.82 1018.55 1019.06 1019.35 1019.44 1019.36 1019.22 1019.10 1019.07 1019.15 1019.37 1019.67 1020.00 1020.30 1020.51 1020.60 1020.55 1020.41 1020.22 1020.04 1019.93 1019.92 1020.01 1020.19 1020.41 1020.63 1020.80 1020.88 1020.86 1020.76 1020.61 1020.46 1020.37 1020.36 1020.46 1020.67 1020.97 1021.32 1021.68 1022.02 1022.31 1022.53 1022.69 1022.80 1022.88
1013.83 1014.76 1015.83 1016.96 1018.02 1018.89 1019.51 1019.84 1019.90 1019.76 1019.51 1019.26 1019.11 1019.11 1019.28 1019.58 1019.96 1020.33 1020.63 1020.81 1020.84 1020.75 1020.57 1020.38 1020.24 1020.18 1020.23 1020.38 1020.60 1020.83 1021.02 1021.14 1021.17 1021.11 1020.99 1020.85 1020.75 1020.70 1020.76 1020.90 1021.13 1021.40 1021.70 1021.97 1022.21 1022.41 1022.55 1022.67 1022.77
1013.47 1014.53 1015.77 1017.07 1018.29 1019.29 1019.99 1020.35 1020.39 1020.17 1019.81 1019.45 1019.17 1019.08 1019.17 1019.45 1019.84 1020.26 1020.63 1020.88 1020.98 1020.94 1020.80 1020.62 1020.45 1020.37 1020.39 1020.51 1020.71 1020.94 1021.17 1021.33 1021.41 1021.41 1021.34 1021.23 1021.13 1021.08 1021.08 1021.17 1021.31 1021.50 1021.71 1021.91 1022.09 1022.24 1022.37 1022.49 1022.62
1013.25 1014.44 1015.81 1017.24 1018.57 1019.67 1020.43 1020.81 1020.82 1020.55 1020.11 1019.64 1019.27 1019.08 1019.10 1019.33 1019.71 1020.15 1020.56 1020.87 1021.03 1021.05 1020.94 1020.77 1020.60 1020.49 1020.48 1020.57 1020.76 1021.00 1021.24 1021.45 1021.58 1021.64 1021.63 1021.58 1021.50 1021.45 1021.43 1021.45 1021.53 1021.63 1021.76 1021.88 1022.00 1022.11 1022.23 1022.35 1022.50
1013.14 1014.41 1015.87 1017.37 1018.77 1019.92 1020.71 1021.12 1021.13 1020.84 1020.37 1019.85 1019.41 1019.15 1019.12 1019.30 1019.65 1020.09 1020.51 1020.85 1021.05 1021.11 1021.04 1020.89 1020.72 1020.60 1020.56 1020.62 1020.78 1021.00 1021.25 1021.49 1021.68 1021.80 1021.85 1021.85 1021.82 1021.78 1021.76 1021.75 1021.77 1021.81 1021.86 1021.93 1021.99 1022.07 1022.17 1022.31 1022.47
1013.04 1014.35 1015.83 1017.35 1018.77 1019.93 1020.76 1021.20 1021.25 1021.00 1020.55 1020.04 1019.60 1019.32 1019.25 1019.40 1019.72 1020.13 1020.55 1020.90 1021.12 1021.21 1021.16 1021.03 1020.86 1020.73 1020.66 1020.69 1020.81 1021.01 1021.25 1021.49 1021.71 1021.87 1021.98 1022.04 1022.06 1022.05 1022.04 1022.02 1022.02 1022.02 1022.03 1022.05 1022.09 1022.15 1022.24 1022.37 1022.55
1012.88 1014.17 1015.62 1017.10 1018.48 1019.65 1020.50 1020.99 1021.13 1020.97 1020.62 1020.21 1019.83 1019.59 1019.53 1019.66 1019.95 1020.33 1020.72 1021.06 1021.29 1021.38 1021.36 1021.24 1021.08 1020.93 1020.84 1020.82 1020.90 1021.05 1021.26 1021.48 1021.70 1021.89 1022.03 1022.14 1022.20 1022.23 1022.25 1022.25 1022.25 1022.24 1022.24 1022.25 1022.28 1022.33 1022.42 1022.55 1022.72
1012.60 1013.81 1015.17 1016.56 1017.88 1019.03 1019.91 1020.49 1020.76 1020.76 1020.58 1020.32 1020.08 1019.93 1019.91 1020.05 1020.33 1020.67 1021.03 1021.34 1021.56 1021.66 1021.65 1021.55 1021.40 1021.25 1021.13 1021.07 1021.09 1021.18 1021.33 1021.51 1021.70 1021.88 1022.03 1022.16 1022.25 1022.33 1022.37 1022.41 1022.43 1022.45 1022.46 1022.49 1022.53 1022.59 1022.68 1022.81 1022.98
1012.18 1013.28 1014.50 1015.76 1016.99 1018.10 1019.02 1019.70 1020.14 1020.36 1020.41 1020.37 1020.31 1020.30 1020.37 1020.55 1020.81 1021.12 1021.44 1021.72 1021.92 1022.02 1022.02 1021.95 1021.82 1021.67 1021.54 1021.45 1021.42 1021.44 1021.51 1021.62 1021.75 1021.89 1022.02 1022.14 1022.25 1022.35 1022.43 1022.50 1022.56 1022.62 1022.67 1022.72 1022.79 1022.87 1022.98 1023.11 1023.26
1011.69 1012.62 1013.67 1014.78 1015.91 1016.97 1017.93 1018.73 1019.36 1019.81 1020.13 1020.33 1020.49 1020.65 1020.83 1021.05 1021.31 1021.60 1021.88 1022.12 1022.30 1022.41 1022.43 1022.39 1022.30 1022.18 1022.06 1021.95 1021.87 1021.83 1021.83 1021.85 1021.91 1021.97 1022.06 1022.15 1022.25 1022.35 1022.45 1022.55 1022.64 1022.74 1022.83 1022.92 1023.02 1023.13 1023.25 1023.39 1023.54
Thickness
5812 5815 5814 5800 5777 5762 5755 5764 5773 5772 5774 5783 5786 5781 5769 5761 5752 5740 5759 5770 5772 5770 5768 5766 5765 5765 5765 5765 5765 5765 5764 5764 5764 5764 5764 5764 5764 5764 5764 5764 5764 5765 5764 5764 5765 5765 5765 5765 5765
5815 5817 5806 5788 5764 5749 5749 5765 5766 5770 5779 5786 5785 5780 5770 5762 5765 5760 5762 5768 5771 5769 5766 5764 5763 5762 5762 5762 5762 5761 5761 5761 5761 5761 5761 5761 5761 5761 5761 5761 5761 5761 5761 5761 5761 5762 5762 5761 5762
5814 5814 5793 5777 5761 5751 5751 5765 5768 5777 5785 5784 5777 5775 5766 5759 5763 5762 5765 5770 5770 5767 5764 5761 5761 5760 5759 5759 5759 5758 5758 5758 5758 5758 5758 5758 5758 5757 5757 5757 5757 5757 5757 5758 5758 5758 5758 5758 5758
5811 5801 5790 5769 5755 5763 5766 5770 5775 5775 5779 5782 5777 5764 5761 5766 5765 5765 5769 5770 5768 5765 5762 5759 5758 5758 5757 5756 5756 5756 5756 5756 5755 5755 5755 5755 5755 5754 5754 5754 5753 5753 5753 5754 5754 5754 5754 5754 5754
5807 5788 5768 5757 5757 5767 5774 5778 5779 5772 5772 5775 5772 5756 5751 5763 5768 5768 5768 5769 5766 5764 5762 5758 5757 5756 5754 5753 5753 5753 5753 5752 5752 5752 5752 5752 5751 5750 5750 5750 5749 5749 5749 5750 5750 5750 5750 5750 5750
5790 5783 5758 5748 5755 5767 5774 5780 5778 5772 5771 5773 5768 5756 5750 5762 5764 5765 5767 5766 5766 5763 5761 5757 5755 5754 5752 5751 5751 5750 5750 5749 5749 5749 5749 5748 5748 5747 5746 5745 5745 5745 5745 5745 5745 5746 5746 5746 5746
5782 5771 5757 5755 5754 5759 5770 5780 5774 5769 5766 5769 5772 5756 5751 5758 5762 5765 5765 5764 5764 5763 5761 5758 5754 5752 5750 5749 5748 5747 5747 5746 5746 5746 5746 5745 5744 5744 5743 5742 5741 5741 5741 5741 5741 5741 5742 5742 5743
5791 5774 5761 5758 5754 5755 5771 5776 5776 5770 5765 5775 5774 5755 5747 5756 5763 5764 5763 5762 5761 5760 5759 5758 5755 5752 5750 5748 5746 5745 5744 5744 5743 5743 5743 5742 5741 5740 5739 5738 5738 5737 5737 5737 5737 5737 5738 5738 5739
5794 5765 5753 5756 5756 5757 5770 5769 5772 5777 5770 5768 5769 5764 5761 5763 5762 5758 5756 5755 5755 5756 5757 5756 5754 5752 5750 5747 5744 5743 5742 5741 5741 5741 5741 5740 5739 5738 5736 5735 5734 5734 5734 5734 5734 5734 5734 5735 5735
5781 5756 5757 5769 5771 5767 5769 5768 5769 5766 5760 5758 5758 5761 5762 5761 5757 5752 5750 5749 5750 5751 5753 5754 5752 5750 5747 5746 5743 5741 5740 5739 5739 5739 5738 5738 5737 5735 5733 5732 5731 5731 5731 5730 5730 5731 5731 5731 5732
5777 5762 5768 5773 5777 5774 5768 5766 5769 5759 5750 5754 5752 5754 5757 5756 5753 5751 5750 5749 5749 5750 5750 5751 5750 5748 5745 5742 5741 5739 5738 5737 5736 5736 5736 5735 5734 5732 5730 5729 5727 5727 5727 5727 5728 5728 5729 5729 5729
5773 5771 5774 5773 5776 5772 5767 5765 5761 5757 5754 5763 5762 5758 5756 5752 5750 5749 5748 5748 5748 5748 5747 5748 5748 5745 5743 5740 5738 5737 5736 5734 5733 5733 5733 5732 5731 5729 5728 5726 5725 5725 5725 5725 5725 5726 5726 5726 5726
5768 5767 5773 5774 5773 5771 5767 5761 5758 5756 5763 5765 5762 5758 5754 5752 5751 5751 5751 5749 5747 5744 5744 5745 5745 5742 5740 5737 5736 5734 5733 5732 5731 5730 5730 5729 5728 5726 5725 5723 5722 5722 5722 5722 5722 5722 5721 5721 5721
5770 5769 5769 5770 5769 5768 5761 5758 5757 5754 5762 5759 5756 5753 5752 5750 5749 5748 5747 5745 5744 5743 5742 5742 5742 5740 5738 5735 5733 5731 5730 5728 5727 5727 5727 5726 5725 5723 5721 5720 5719 5719 5718 5718 5717 5717 5716 5715 5715
5774 5762 5760 5764 5766 5765 5760 5747 5751 5758 5760 5754 5752 5751 5750 5749 5749 5747 5746 5744 5743 5742 5741 5739 5739 5737 5734 5732 5730 5728 5727 5725 5724 5724 5724 5723 5722 5720 5718 5716 5715 5714 5714 5714 5713 5712 5711 5710 5710
5765 5753 5743 5758 5764 5764 5750 5732 5751 5760 5756 5749 5748 5748 5746 5747 5747 5747 5746 5744 5743 5741 5738 5737 5737 5733 5731 5728 5726 5725 5723 5722 5721 5720 5720 5720 5718 5716 5714 5712 5711 5711 5710 5710 5708 5707 5705 5704 5703
5749 5740 5741 5751 5763 5761 5750 5736 5750 5759 5754 5748 5747 5746 5744 5744 5744 5745 5745 5743 5742 5740 5737 5734 5733 5730 5728 5726 5724 5722 5720 5719 5717 5717 5716 5716 5715 5713 5711 5709 5708 5707 5706 5705 5704 5702 5701 5698 5698
5742 5746 5748 5747 5757 5756 5746 5742 5750 5756 5753 5749 5747 5746 5744 5742 5742 5743 5743 5742 5740 5738 5736 5732 5730 5728 5726 5724 5721 5718 5717 5716 5715 5713 5713 5712 5711 5710 5708 5706 5705 5703 5702 5700 5699 5698 5697 5695 5695
5759 5752 5748 5752 5762 5752 5745 5743 5748 5753 5750 5747 5746 5745 5743 5743 5744 5743 5741 5739 5737 5734 5732 5729 5727 5726 5723 5720 5717 5713 5711 5711 5711 5711 5710 5710 5708 5707 5705 5703 5701 5700 5698 5696 5696 5694 5692 5691 5692
5757 5748 5746 5752 5760 5752 5744 5744 5752 5753 5750 5749 5747 5745 5744 5742 5741 5740 5739 5736 5734 5731 5730 5729 5726 5724 5721 5718 5716 5714 5711 5710 5709 5708 5707 5707 5706 5704 5703 5701 5698 5697 5695 5693 5692 5690 5687 5687 5688
5753 5748 5747 5746 5752 5753 5744 5736 5744 5752 5754 5752 5750 5748 5746 5743 5739 5738 5736 5734 5732 5730 5728 5728 5725 5722 5720 5717 5714 5712 5709 5707 5705 5704 5704 5705 5704 5702 5701 5699 5697 5695 5693 5690 5689 5688 5686 5683 5684
5744 5758 5754 5748 5739 5734 5741 5718 5736 5746 5745 5746 5745 5745 5744 5744 5742 5738 5736 5733 5731 5730 5729 5727 5724 5722 5719 5717 5712 5708 5704 5701 5702 5703 5702 5703 5702 5700 5699 5698 5697 5694 5692 5690 5689 5687 5685 5683 5680
5751 5761 5755 5749 5741 5734 5740 5728 5731 5746 5737 5741 5744 5745 5744 5743 5742 5739 5737 5734 5733 5730 5728 5725 5723 5720 5718 5716 5711 5708 5705 5703 5703 5703 5701 5701 5700 5699 5698 5697 5695 5693 5691 5689 5688 5686 5684 5682 5679
5758 5753 5750 5748 5737 5718 5737 5729 5721 5737 5740 5742 5745 5746 5745 5744 5743 5739 5738 5734 5731 5729 5725 5723 5720 5717 5716 5713 5711 5708 5705 5703 5701 5699 5698 5698 5697 5697 5696 5695 5694 5692 5690 5688 5686 5685 5683 5681 5679
5749 5731 5714 5711 5709 5718 5746 5734 5727 5745 5752 5749 5746 5745 5745 5744 5740 5736 5733 5730 5727 5725 5722 5720 5717 5714 5713 5712 5710 5708 5706 5704 5701 5698 5697 5696 5694 5693 5693 5693 5692 5690 5689 5687 5686 5684 5682 5680 5678
5741 5733 5710 5701 5707 5723 5739 5728 5733 5753 5755 5754 5751 5747 5744 5741 5739 5735 5732 5729 5725 5722 5720 5718 5715 5712 5711 5710 5709 5708 5706 5703 5701 5700 5697 5696 5694 5693 5693 5691 5690 5689 5687 5686 5684 5682 5680 5679 5677
5733 5732 5739 5725 5725 5719 5727 5730 5738 5750 5747 5747 5745 5742 5739 5738 5736 5733 5730 5728 5724 5721 5719 5717 5714 5711 5710 5709 5708 5706 5705 5702 5701 5700 5698 5696 5695 5693 5692 5690 5688 5687 5685 5683 5682 5679 5678 5677 5675
5744 5739 5729 5719 5706 5702 5715 5721 5723 5732 5736 5739 5738 5736 5736 5735 5733 5731 5729 5727 5724 5722 5719 5717 5714 5711 5709 5707 5706 5705 5703 5702 5700 5699 5696 5695 5694 5692 5690 5689 5687 5685 5683 5681 5680 5677 5676 5674 5672
5734 5733 5730 5725 5724 5706 5698 5709 5743 5739 5740 5737 5736 5736 5735 5733 5731 5729 5727 5726 5724 5721 5718 5715 5712 5709 5707 5706 5705 5703 5702 5700 5699 5697 5695 5694 5692 5691 5689 5687 5685 5684 5682 5680 5677 5675 5674 5672 5670
5737 5734 5729 5711 5712 5720 5708 5709 5747 5745 5744 5740 5737 5736 5734 5732 5730 5728 5726 5723 5720 5718 5716 5713 5711 5708 5706 5705 5703 5702 5700 5699 5697 5695 5694 5693 5691 5690 5688 5686 5684 5682 5680 5678 5676 5673 5671 5669 5667